| time (UTC) | temp F | wind direction | speed MPH | gust MPH | rain 1hr in | rain 24hr in | rain mn in | humidity % | barometer mb |
| 20260509211545 | 87 | 15 | 2.0 | 9.0 | 0.00 | 0.00 | 0.00 | 57 | 1008.5 |
| 20260509211018 | 87 | 59 | 3.0 | 10.0 | 0.00 | 0.00 | 0.00 | 56 | 1008.5 |
| 20260509210519 | 87 | 78 | 4.0 | 10.0 | 0.00 | 0.00 | 0.00 | 56 | 1008.6 |
| 20260509210044 | 87 | 355 | 2.0 | 9.0 | 0.00 | 0.00 | 0.00 | 56 | 1008.5 |
| 20260509205518 | 87 | 0 | 0.0 | 7.0 | 0.00 | 0.00 | 0.00 | 54 | 1008.7 |
| 20260509205019 | 87 | 29 | 1.0 | 9.0 | 0.00 | 0.00 | 0.00 | 55 | 1008.7 |
| 20260509204535 | 87 | 55 | 3.0 | 9.0 | 0.00 | 0.00 | 0.00 | 55 | 1008.8 |
| 20260509204019 | 86 | 0 | 4.0 | 9.0 | 0.00 | 0.00 | 0.00 | 55 | 1008.9 |
| 20260509203518 | 87 | 13 | 3.0 | 10.0 | 0.00 | 0.00 | 0.00 | 56 | 1009.0 |
| 20260509203041 | 87 | 48 | 2.0 | 11.0 | 0.00 | 0.00 | 0.00 | 57 | 1009.0 |
| 20260509202516 | 87 | 5 | 3.0 | 11.0 | 0.00 | 0.00 | 0.00 | 55 | 1009.0 |
| 20260509202020 | 87 | 0 | 0.0 | 8.0 | 0.00 | 0.00 | 0.00 | 55 | 1008.9 |
| 20260509201535 | 87 | 360 | 1.0 | 8.0 | 0.00 | 0.00 | 0.00 | 56 | 1009.0 |
| 20260509201021 | 87 | 67 | 2.0 | 8.0 | 0.00 | 0.00 | 0.00 | 56 | 1008.9 |
| 20260509200519 | 87 | 19 | 1.0 | 8.0 | 0.00 | 0.00 | 0.00 | 55 | 1009.0 |
| 20260509200044 | 87 | 0 | 0.0 | 2.0 | 0.00 | 0.00 | 0.00 | 55 | 1009.1 |
| 20260509195520 | 87 | 0 | 0.0 | 4.0 | 0.00 | 0.00 | 0.00 | 54 | 1009.2 |
| 20260509195021 | 87 | 0 | 0.0 | 8.0 | 0.00 | 0.00 | 0.00 | 53 | 1009.3 |
| 20260509194532 | 87 | 340 | 1.0 | 8.0 | 0.00 | 0.00 | 0.00 | 52 | 1009.4 |
| 20260509194016 | 86 | 336 | 1.0 | 8.0 | 0.00 | 0.00 | 0.00 | 55 | 1009.5 |
| 20260509193521 | 86 | 0 | 0.0 | 9.0 | 0.00 | 0.00 | 0.00 | 56 | 1009.5 |
| 20260509193044 | 86 | 324 | 4.0 | 9.0 | 0.00 | 0.00 | 0.00 | 55 | 1009.5 |
| 20260509192516 | 86 | 308 | 1.0 | 9.0 | 0.00 | 0.00 | 0.00 | 57 | 1009.5 |
| 20260509192027 | 86 | 0 | 0.0 | 8.0 | 0.00 | 0.00 | 0.00 | 57 | 1009.7 |
| 20260509191548 | 85 | 11 | 1.0 | 8.0 | 0.00 | 0.00 | 0.00 | 59 | 1009.7 |
| 20260509191018 | 85 | 5 | 3.0 | 9.0 | 0.00 | 0.00 | 0.00 | 58 | 1009.8 |
| 20260509190521 | 85 | 0 | 2.0 | 9.0 | 0.00 | 0.00 | 0.00 | 57 | 1009.8 |
| 20260509190044 | 86 | 13 | 2.0 | 7.0 | 0.00 | 0.00 | 0.00 | 58 | 1009.8 |
| 20260509185518 | 85 | 289 | 3.0 | 7.0 | 0.00 | 0.00 | 0.00 | 54 | 1009.9 |
| 20260509185019 | 85 | 44 | 1.0 | 7.0 | 0.00 | 0.00 | 0.00 | 62 | 1009.9 |
| 20260509184542 | 85 | 64 | 1.0 | 8.0 | 0.00 | 0.00 | 0.00 | 61 | 1010.0 |
| 20260509184015 | 85 | 50 | 3.0 | 9.0 | 0.00 | 0.00 | 0.00 | 63 | 1010.0 |
| 20260509183516 | 85 | 0 | 2.0 | 9.0 | 0.00 | 0.00 | 0.00 | 61 | 1010.0 |
| 20260509183043 | 84 | 324 | 2.0 | 9.0 | 0.00 | 0.00 | 0.00 | 63 | 1010.2 |
| 20260509182518 | 84 | 0 | 1.0 | 6.0 | 0.00 | 0.00 | 0.00 | 61 | 1010.1 |
| 20260509182019 | 84 | 0 | 0.0 | 6.0 | 0.00 | 0.00 | 0.00 | 63 | 1010.1 |
| 20260509181542 | 84 | 0 | 2.0 | 7.0 | 0.00 | 0.00 | 0.00 | 62 | 1010.3 |
| 20260509181030 | 84 | 333 | 0.0 | 8.0 | 0.00 | 0.00 | 0.00 | 62 | 1010.4 |
| 20260509180519 | 84 | 0 | 1.0 | 8.0 | 0.00 | 0.00 | 0.00 | 59 | 1010.4 |
| 20260509180041 | 84 | 284 | 2.0 | 8.0 | 0.00 | 0.00 | 0.00 | 59 | 1010.4 |
| 20260509175519 | 83 | 14 | 0.0 | 8.0 | 0.00 | 0.00 | 0.00 | 62 | 1010.5 |
| 20260509175023 | 83 | 301 | 4.0 | 9.0 | 0.00 | 0.00 | 0.00 | 61 | 1010.6 |
| 20260509174535 | 83 | 265 | 2.0 | 9.0 | 0.00 | 0.00 | 0.00 | 59 | 1010.7 |
| 20260509174018 | 83 | 320 | 2.0 | 9.0 | 0.00 | 0.00 | 0.00 | 61 | 1010.8 |
| 20260509173518 | 82 | 340 | 2.0 | 6.0 | 0.00 | 0.00 | 0.00 | 61 | 1010.8 |
| 20260509173054 | 82 | 0 | 0.0 | 6.0 | 0.00 | 0.00 | 0.00 | 60 | 1010.8 |
| 20260509172519 | 82 | 279 | 0.0 | 7.0 | 0.00 | 0.00 | 0.00 | 61 | 1010.9 |
| 20260509172019 | 82 | 0 | 0.0 | 7.0 | 0.00 | 0.00 | 0.00 | 59 | 1010.9 |
| 20260509171551 | 82 | 279 | 3.0 | 7.0 | 0.00 | 0.00 | 0.00 | 60 | 1010.9 |
| 20260509171015 | 82 | 331 | 0.0 | 8.0 | 0.00 | 0.00 | 0.00 | 62 | 1011.0 |
| 20260509170518 | 82 | 0 | 3.0 | 8.0 | 0.00 | 0.00 | 0.00 | 59 | 1011.0 |
| 20260509170043 | 82 | 0 | 0.0 | 5.0 | 0.00 | 0.00 | 0.00 | 62 | 1011.0 |
| 20260509165518 | 82 | 0 | 0.0 | 5.0 | 0.00 | 0.00 | 0.00 | 62 | 1011.1 |
| 20260509165015 | 81 | 0 | 0.0 | 6.0 | 0.00 | 0.00 | 0.00 | 61 | 1011.0 |
| 20260509164547 | 81 | 0 | 0.0 | 9.0 | 0.00 | 0.00 | 0.00 | 64 | 1011.3 |
| 20260509164019 | 80 | 0 | 2.0 | 9.0 | 0.00 | 0.00 | 0.00 | 61 | 1011.3 |
| 20260509163520 | 80 | 273 | 0.0 | 9.0 | 0.00 | 0.00 | 0.00 | 64 | 1011.2 |
| 20260509163047 | 80 | 0 | 3.0 | 9.0 | 0.00 | 0.00 | 0.00 | 62 | 1011.3 |
| 20260509162516 | 80 | 294 | 3.0 | 9.0 | 0.00 | 0.00 | 0.00 | 64 | 1011.3 |
| 20260509162022 | 80 | 269 | 1.0 | 9.0 | 0.00 | 0.00 | 0.00 | 65 | 1011.3 |
| 20260509161535 | 79 | 269 | 4.0 | 10.0 | 0.00 | 0.00 | 0.00 | 64 | 1011.2 |
| 20260509161018 | 79 | 0 | 1.0 | 10.0 | 0.00 | 0.00 | 0.00 | 66 | 1011.2 |
| 20260509160519 | 78 | 284 | 4.0 | 10.0 | 0.00 | 0.00 | 0.00 | 65 | 1011.2 |
| 20260509160035 | 78 | 261 | 3.0 | 10.0 | 0.00 | 0.00 | 0.00 | 67 | 1011.2 |
| 20260509155515 | 78 | 0 | 2.0 | 10.0 | 0.00 | 0.00 | 0.00 | 68 | 1011.1 |
| 20260509155021 | 78 | 294 | 4.0 | 10.0 | 0.00 | 0.00 | 0.00 | 68 | 1011.2 |
| 20260509154542 | 77 | 272 | 3.0 | 10.0 | 0.00 | 0.00 | 0.00 | 68 | 1011.2 |
| 20260509154019 | 77 | 277 | 4.0 | 10.0 | 0.00 | 0.00 | 0.00 | 69 | 1011.1 |
| 20260509153519 | 77 | 278 | 5.0 | 10.0 | 0.00 | 0.00 | 0.00 | 69 | 1011.1 |
| 20260509153043 | 77 | 264 | 3.0 | 10.0 | 0.00 | 0.00 | 0.00 | 69 | 1011.1 |
| 20260509152519 | 76 | 0 | 3.0 | 11.0 | 0.00 | 0.00 | 0.00 | 70 | 1011.1 |
| 20260509152019 | 76 | 279 | 4.0 | 11.0 | 0.00 | 0.00 | 0.00 | 70 | 1011.1 |
| 20260509151539 | 76 | 294 | 5.0 | 11.0 | 0.00 | 0.00 | 0.00 | 69 | 1011.2 |
| 20260509151019 | 76 | 284 | 5.0 | 9.0 | 0.00 | 0.00 | 0.00 | 69 | 1011.1 |
| 20260509150517 | 76 | 252 | 5.0 | 9.0 | 0.00 | 0.00 | 0.00 | 70 | 1011.2 |
| 20260509150035 | 76 | 253 | 4.0 | 13.0 | 0.00 | 0.00 | 0.00 | 70 | 1011.2 |
| 20260509145516 | 76 | 189 | 3.0 | 13.0 | 0.00 | 0.00 | 0.00 | 69 | 1011.3 |
| 20260509145018 | 76 | 0 | 0.0 | 10.0 | 0.00 | 0.00 | 0.00 | 70 | 1011.2 |
| 20260509144544 | 76 | 0 | 0.0 | 10.0 | 0.00 | 0.00 | 0.00 | 71 | 1011.3 |
| 20260509144016 | 76 | 0 | 0.0 | 9.0 | 0.00 | 0.00 | 0.00 | 70 | 1011.3 |
| 20260509143516 | 76 | 281 | 3.0 | 12.0 | 0.00 | 0.00 | 0.00 | 70 | 1011.3 |
| 20260509143035 | 76 | 292 | 5.0 | 12.0 | 0.00 | 0.00 | 0.00 | 71 | 1011.2 |
| 20260509142515 | 76 | 0 | 0.0 | 4.0 | 0.00 | 0.00 | 0.00 | 73 | 1011.1 |
| 20260509142021 | 76 | 0 | 0.0 | 4.0 | 0.00 | 0.00 | 0.00 | 76 | 1011.1 |
| 20260509141537 | 76 | 0 | 0.0 | 0.0 | 0.00 | 0.00 | 0.00 | 79 | 1011.2 |
| 20260509141016 | 75 | 0 | 0.0 | 0.0 | 0.00 | 0.00 | 0.00 | 80 | 1011.1 |
| 20260509140515 | 75 | 0 | 0.0 | 0.0 | 0.00 | 0.00 | 0.00 | 81 | 1011.2 |
| 20260509140041 | 74 | 0 | 0.0 | 0.0 | 0.00 | 0.00 | 0.00 | 82 | 1011.2 |
| 20260509135520 | 73 | 0 | 0.0 | 0.0 | 0.00 | 0.00 | 0.00 | 83 | 1011.2 |
| 20260509135020 | 73 | 0 | 0.0 | 0.0 | 0.00 | 0.00 | 0.00 | 84 | 1011.1 |
| 20260509134550 | 73 | 0 | 0.0 | 0.0 | 0.00 | 0.00 | 0.00 | 84 | 1011.1 |
| 20260509134016 | 72 | 0 | 0.0 | 0.0 | 0.00 | 0.00 | 0.00 | 85 | 1011.2 |
| 20260509133516 | 72 | 0 | 0.0 | 0.0 | 0.00 | 0.00 | 0.00 | 86 | 1011.2 |
| 20260509133037 | 71 | 0 | 0.0 | 0.0 | 0.00 | 0.00 | 0.00 | 86 | 1011.1 |
| 20260509132516 | 71 | 0 | 0.0 | 0.0 | 0.00 | 0.00 | 0.00 | 87 | 1011.0 |
| 20260509132016 | 71 | 0 | 0.0 | 0.0 | 0.00 | 0.00 | 0.00 | 88 | 1011.1 |
| 20260509131552 | 70 | 0 | 0.0 | 0.0 | 0.00 | 0.00 | 0.00 | 89 | 1011.0 |
| 20260509131015 | 70 | 0 | 0.0 | 0.0 | 0.00 | 0.00 | 0.00 | 90 | 1011.0 |
| 20260509130518 | 69 | 0 | 0.0 | 0.0 | 0.00 | 0.00 | 0.00 | 91 | 1011.0 |
| 20260509130047 | 68 | 0 | 0.0 | 0.0 | 0.00 | 0.00 | 0.00 | 91 | 1011.1 |
| 20260509125516 | 68 | 0 | 0.0 | 0.0 | 0.00 | 0.00 | 0.00 | 91 | 1011.1 |
| 20260509125022 | 68 | 0 | 0.0 | 3.0 | 0.00 | 0.00 | 0.00 | 92 | 1011.0 |
| 20260509124541 | 67 | 0 | 0.0 | 6.0 | 0.00 | 0.00 | 0.00 | 92 | 1011.0 |
| 20260509124018 | 67 | 281 | 2.0 | 6.0 | 0.00 | 0.00 | 0.00 | 92 | 1011.0 |
| 20260509123518 | 67 | 285 | 0.0 | 4.0 | 0.00 | 0.00 | 0.00 | 93 | 1010.9 |
| 20260509123048 | 67 | 0 | 0.0 | 3.0 | 0.00 | 0.00 | 0.00 | 93 | 1010.8 |
| 20260509122516 | 67 | 0 | 0.0 | 2.0 | 0.00 | 0.00 | 0.00 | 93 | 1010.8 |
| 20260509122018 | 66 | 0 | 0.0 | 4.0 | 0.00 | 0.00 | 0.00 | 93 | 1010.8 |
| 20260509121537 | 66 | 0 | 0.0 | 4.0 | 0.00 | 0.00 | 0.00 | 93 | 1010.8 |
| 20260509121019 | 66 | 0 | 0.0 | 0.0 | 0.00 | 0.00 | 0.00 | 93 | 1010.7 |
| 20260509120519 | 66 | 0 | 0.0 | 0.0 | 0.00 | 0.00 | 0.00 | 93 | 1010.6 |
| 20260509120034 | 66 | 0 | 0.0 | 0.0 | 0.00 | 0.00 | 0.00 | 93 | 1010.7 |
| 20260509115515 | 66 | 0 | 0.0 | 0.0 | 0.00 | 0.00 | 0.00 | 93 | 1010.6 |
| 20260509115021 | 66 | 0 | 0.0 | 0.0 | 0.00 | 0.00 | 0.00 | 93 | 1010.7 |
| 20260509114531 | 66 | 0 | 0.0 | 0.0 | 0.00 | 0.00 | 0.00 | 93 | 1010.8 |
| 20260509114016 | 66 | 0 | 0.0 | 0.0 | 0.00 | 0.00 | 0.00 | 93 | 1010.7 |
| 20260509113521 | 66 | 0 | 0.0 | 0.0 | 0.00 | 0.00 | 0.00 | 93 | 1010.6 |
| 20260509113046 | 67 | 0 | 0.0 | 0.0 | 0.00 | 0.00 | 0.00 | 93 | 1010.5 |
| 20260509112515 | 67 | 0 | 0.0 | 1.0 | 0.00 | 0.00 | 0.00 | 93 | 1010.4 |
| 20260509112016 | 66 | 0 | 0.0 | 1.0 | 0.00 | 0.00 | 0.00 | 93 | 1010.4 |
| 20260509111536 | 66 | 0 | 0.0 | 6.0 | 0.00 | 0.00 | 0.00 | 93 | 1010.3 |
| 20260509111020 | 66 | 0 | 0.0 | 6.0 | 0.00 | 0.00 | 0.00 | 93 | 1010.2 |
| 20260509110516 | 66 | 272 | 2.0 | 6.0 | 0.00 | 0.00 | 0.00 | 93 | 1010.0 |
| 20260509110039 | 66 | 217 | 0.0 | 4.0 | 0.00 | 0.00 | 0.00 | 93 | 1010.0 |
| 20260509105516 | 66 | 211 | 0.0 | 4.0 | 0.00 | 0.11 | 0.00 | 93 | 1010.1 |
| 20260509105019 | 66 | 0 | 0.0 | 2.0 | 0.00 | 0.11 | 0.00 | 92 | 1010.0 |
| 20260509104542 | 66 | 0 | 0.0 | 6.0 | 0.00 | 0.11 | 0.00 | 92 | 1010.1 |
| 20260509104015 | 66 | 0 | 0.0 | 6.0 | 0.00 | 0.11 | 0.00 | 92 | 1009.9 |
| 20260509103515 | 67 | 262 | 2.0 | 6.0 | 0.00 | 0.11 | 0.00 | 92 | 1009.5 |
| 20260509103032 | 67 | 263 | 2.0 | 6.0 | 0.00 | 0.11 | 0.00 | 92 | 1009.4 |
| 20260509102520 | 67 | 273 | 2.0 | 4.0 | 0.00 | 0.11 | 0.00 | 92 | 1009.3 |
| 20260509102020 | 67 | 355 | 0.0 | 2.0 | 0.00 | 0.11 | 0.00 | 91 | 1009.4 |
| 20260509101541 | 67 | 0 | 0.0 | 3.0 | 0.00 | 0.11 | 0.00 | 91 | 1009.5 |
| 20260509101016 | 67 | 0 | 0.0 | 3.0 | 0.00 | 0.11 | 0.00 | 91 | 1009.5 |
| 20260509100517 | 67 | 0 | 0.0 | 3.0 | 0.00 | 0.11 | 0.00 | 91 | 1009.3 |
| 20260509100040 | 67 | 0 | 0.0 | 1.0 | 0.00 | 0.11 | 0.00 | 91 | 1009.2 |
| 20260509095515 | 67 | 0 | 0.0 | 1.0 | 0.00 | 0.11 | 0.00 | 91 | 1008.9 |
| 20260509095016 | 67 | 360 | 0.0 | 2.0 | 0.00 | 0.11 | 0.00 | 91 | 1009.0 |
| 20260509094534 | 67 | 0 | 0.0 | 4.0 | 0.00 | 0.11 | 0.00 | 91 | 1008.7 |
| 20260509094016 | 68 | 360 | 0.0 | 5.0 | 0.00 | 0.11 | 0.00 | 91 | 1008.6 |
| 20260509093516 | 68 | 352 | 2.0 | 8.0 | 0.00 | 0.11 | 0.00 | 90 | 1008.4 |
| 20260509093035 | 68 | 360 | 3.0 | 12.0 | 0.00 | 0.11 | 0.00 | 90 | 1008.3 |
| 20260509092518 | 68 | 360 | 3.0 | 12.0 | 0.00 | 0.11 | 0.00 | 90 | 1008.1 |
| 20260509092016 | 68 | 5 | 6.0 | 15.0 | 0.00 | 0.11 | 0.00 | 90 | 1007.9 |
| 20260509091531 | 68 | 323 | 7.0 | 15.0 | 0.00 | 0.11 | 0.00 | 90 | 1007.7 |
| 20260509091019 | 68 | 348 | 6.0 | 17.0 | 0.00 | 0.11 | 0.00 | 89 | 1007.7 |
| 20260509090517 | 68 | 313 | 7.0 | 17.0 | 0.00 | 0.11 | 0.00 | 89 | 1007.7 |
| 20260509090035 | 69 | 345 | 8.0 | 14.0 | 0.00 | 0.11 | 0.00 | 89 | 1007.7 |
| 20260509085517 | 69 | 11 | 5.0 | 14.0 | 0.00 | 0.11 | 0.00 | 88 | 1007.7 |
| 20260509085016 | 69 | 325 | 7.0 | 14.0 | 0.00 | 0.11 | 0.00 | 87 | 1007.7 |
| 20260509084539 | 70 | 329 | 5.0 | 12.0 | 0.00 | 0.11 | 0.00 | 85 | 1007.7 |
| 20260509084016 | 70 | 5 | 3.0 | 11.0 | 0.00 | 0.11 | 0.00 | 84 | 1007.6 |
| 20260509083521 | 70 | 254 | 5.0 | 14.0 | 0.00 | 0.11 | 0.00 | 83 | 1007.5 |
| 20260509083043 | 70 | 261 | 7.0 | 14.0 | 0.00 | 0.11 | 0.00 | 82 | 1007.6 |
| 20260509082516 | 70 | 279 | 8.0 | 14.0 | 0.00 | 0.11 | 0.00 | 82 | 1007.7 |
| 20260509082016 | 69 | 271 | 5.0 | 13.0 | 0.00 | 0.11 | 0.00 | 83 | 1007.6 |
| 20260509081542 | 69 | 290 | 2.0 | 8.0 | 0.00 | 0.11 | 0.00 | 85 | 1007.6 |
| 20260509081021 | 69 | 305 | 2.0 | 4.0 | 0.00 | 0.11 | 0.00 | 85 | 1007.2 |
| 20260509080516 | 69 | 0 | 0.0 | 3.0 | 0.00 | 0.11 | 0.00 | 85 | 1006.7 |
| 20260509080036 | 69 | 0 | 0.0 | 5.0 | 0.00 | 0.11 | 0.00 | 85 | 1006.6 |
| 20260509075517 | 69 | 0 | 0.0 | 5.0 | 0.00 | 0.11 | 0.00 | 86 | 1006.5 |
| 20260509075016 | 69 | 131 | 0.0 | 6.0 | 0.00 | 0.11 | 0.00 | 87 | 1006.6 |
| 20260509074535 | 69 | 0 | 1.0 | 13.0 | 0.00 | 0.11 | 0.00 | 88 | 1006.6 |
| 20260509074016 | 69 | 111 | 3.0 | 17.0 | 0.00 | 0.11 | 0.00 | 89 | 1006.7 |
| 20260509073516 | 69 | 154 | 5.0 | 17.0 | 0.00 | 0.11 | 0.00 | 90 | 1007.2 |
| 20260509073037 | 69 | 175 | 7.0 | 17.0 | 0.00 | 0.11 | 0.00 | 90 | 1007.6 |
| 20260509072525 | 69 | 157 | 7.0 | 13.0 | 0.00 | 0.11 | 0.00 | 91 | 1008.0 |
| 20260509072022 | 69 | 150 | 7.0 | 14.0 | 0.00 | 0.11 | 0.00 | 92 | 1008.3 |
| 20260509071538 | 68 | 121 | 5.0 | 14.0 | 0.00 | 0.11 | 0.00 | 92 | 1008.8 |
| 20260509071020 | 68 | 115 | 4.0 | 13.0 | 0.00 | 0.11 | 0.00 | 92 | 1009.2 |
| 20260509070516 | 68 | 182 | 5.0 | 13.0 | 0.00 | 0.11 | 0.00 | 92 | 1009.5 |
| 20260509070036 | 68 | 156 | 6.0 | 12.0 | 0.00 | 0.11 | 0.00 | 92 | 1009.3 |
| 20260509065515 | 68 | 155 | 6.0 | 12.0 | 0.00 | 0.11 | 0.00 | 92 | 1009.5 |
| 20260509065024 | 68 | 138 | 5.0 | 10.0 | 0.00 | 0.11 | 0.00 | 93 | 1009.8 |
| 20260509064541 | 67 | 144 | 4.0 | 8.0 | 0.00 | 0.11 | 0.00 | 93 | 1010.1 |
| 20260509064022 | 67 | 161 | 2.0 | 5.0 | 0.00 | 0.11 | 0.00 | 93 | 1010.3 |
| 20260509063516 | 67 | 0 | 1.0 | 6.0 | 0.00 | 0.11 | 0.00 | 93 | 1010.4 |
| 20260509063035 | 66 | 159 | 1.0 | 7.0 | 0.00 | 0.11 | 0.00 | 92 | 1010.4 |
| 20260509062516 | 66 | 0 | 2.0 | 7.0 | 0.00 | 0.11 | 0.00 | 92 | 1010.5 |
| 20260509062017 | 66 | 156 | 0.0 | 2.0 | 0.00 | 0.11 | 0.00 | 92 | 1010.6 |
| 20260509061537 | 66 | 0 | 0.0 | 0.0 | 0.00 | 0.11 | 0.00 | 93 | 1011.0 |
| 20260509061016 | 66 | 0 | 0.0 | 0.0 | 0.00 | 0.11 | 0.00 | 92 | 1011.1 |
| 20260509060517 | 66 | 0 | 0.0 | 2.0 | 0.00 | 0.11 | 0.00 | 92 | 1011.1 |
| 20260509060036 | 66 | 0 | 0.0 | 2.0 | 0.00 | 0.11 | 0.00 | 92 | 1011.1 |
| 20260509055516 | 66 | 0 | 0.0 | 4.0 | 0.00 | 0.11 | 0.00 | 92 | 1011.0 |
| 20260509055016 | 66 | 0 | 1.0 | 4.0 | 0.00 | 0.11 | 0.00 | 91 | 1010.9 |
| 20260509054542 | 66 | 163 | 0.0 | 4.0 | 0.00 | 0.11 | 0.00 | 91 | 1011.0 |
| 20260509054018 | 66 | 0 | 0.0 | 4.0 | 0.00 | 0.11 | 0.00 | 90 | 1011.1 |
| 20260509053521 | 66 | 163 | 0.0 | 4.0 | 0.00 | 0.11 | 0.00 | 90 | 1010.8 |
| 20260509053115 | 67 | 0 | 0.0 | 0.0 | 0.00 | 0.11 | 0.00 | 89 | 1010.7 |
| 20260509052520 | 67 | 0 | 0.0 | 2.0 | 0.00 | 0.11 | 0.00 | 89 | 1010.6 |
| 20260509052015 | 67 | 0 | 0.0 | 2.0 | 0.00 | 0.11 | 0.00 | 89 | 1010.7 |
| 20260509051542 | 68 | 0 | 1.0 | 3.0 | 0.00 | 0.11 | 0.00 | 89 | 1010.8 |
| 20260509051016 | 68 | 254 | 1.0 | 3.0 | 0.00 | 0.11 | 0.00 | 89 | 1010.8 |
| 20260509050516 | 68 | 256 | 1.0 | 3.0 | 0.00 | 0.11 | 0.00 | 88 | 1011.1 |
| 20260509050040 | 68 | 0 | 0.0 | 0.0 | 0.00 | 0.11 | 0.00 | 88 | 1011.6 |
| 20260509045516 | 69 | 0 | 0.0 | 2.0 | 0.00 | 0.11 | 0.11 | 88 | 1011.7 |
| 20260509045018 | 69 | 0 | 0.0 | 8.0 | 0.00 | 0.11 | 0.11 | 88 | 1012.0 |
| 20260509044534 | 69 | 0 | 1.0 | 9.0 | 0.00 | 0.11 | 0.11 | 89 | 1012.1 |
| 20260509044015 | 69 | 0 | 3.0 | 9.0 | 0.00 | 0.11 | 0.11 | 89 | 1012.4 |
| 20260509043517 | 69 | 304 | 3.0 | 9.0 | 0.00 | 0.11 | 0.11 | 89 | 1012.2 |
| 20260509043035 | 68 | 291 | 5.0 | 9.0 | 0.00 | 0.11 | 0.11 | 89 | 1012.2 |
| 20260509042519 | 69 | 298 | 2.0 | 4.0 | 0.00 | 0.11 | 0.11 | 88 | 1011.5 |
| 20260509042016 | 69 | 0 | 0.0 | 2.0 | 0.00 | 0.11 | 0.11 | 87 | 1010.8 |
| 20260509041535 | 69 | 0 | 0.0 | 3.0 | 0.00 | 0.11 | 0.11 | 87 | 1010.6 |
| 20260509041017 | 69 | 71 | 0.0 | 4.0 | 0.00 | 0.11 | 0.11 | 87 | 1010.6 |
| 20260509040519 | 69 | 0 | 0.0 | 6.0 | 0.00 | 0.11 | 0.11 | 87 | 1010.2 |
| 20260509040046 | 69 | 71 | 2.0 | 6.0 | 0.00 | 0.11 | 0.11 | 87 | 1010.1 |
| 20260509035516 | 69 | 74 | 3.0 | 6.0 | 0.00 | 0.11 | 0.11 | 87 | 1009.9 |
| 20260509035016 | 69 | 64 | 2.0 | 8.0 | 0.00 | 0.11 | 0.11 | 87 | 1009.8 |
| 20260509034535 | 69 | 101 | 2.0 | 8.0 | 0.00 | 0.11 | 0.11 | 87 | 1009.7 |
| 20260509034017 | 69 | 91 | 4.0 | 9.0 | 0.00 | 0.11 | 0.11 | 86 | 1009.8 |
| 20260509033516 | 69 | 71 | 4.0 | 9.0 | 0.00 | 0.11 | 0.11 | 86 | 1009.7 |
| 20260509033035 | 69 | 78 | 4.0 | 9.0 | 0.00 | 0.11 | 0.11 | 87 | 1009.7 |
| 20260509032516 | 69 | 73 | 3.0 | 8.0 | 0.00 | 0.11 | 0.11 | 87 | 1009.8 |
| 20260509032018 | 69 | 57 | 2.0 | 6.0 | 0.00 | 0.11 | 0.11 | 86 | 1009.9 |
| 20260509031543 | 69 | 57 | 2.0 | 8.0 | 0.00 | 0.11 | 0.11 | 87 | 1009.9 |
| 20260509031017 | 69 | 63 | 2.0 | 9.0 | 0.00 | 0.11 | 0.11 | 87 | 1009.9 |
| 20260509030521 | 69 | 19 | 3.0 | 9.0 | 0.00 | 0.11 | 0.11 | 87 | 1009.9 |
| 20260509030042 | 69 | 19 | 4.0 | 9.0 | 0.00 | 0.11 | 0.11 | 87 | 1010.2 |
| 20260509025518 | 69 | 350 | 4.0 | 10.0 | 0.00 | 0.11 | 0.11 | 87 | 1010.3 |
| 20260509025020 | 69 | 355 | 4.0 | 10.0 | 0.00 | 0.11 | 0.11 | 87 | 1010.4 |
| 20260509024537 | 69 | 329 | 3.0 | 8.0 | 0.00 | 0.11 | 0.11 | 87 | 1010.2 |
| 20260509024019 | 69 | 315 | 3.0 | 6.0 | 0.00 | 0.11 | 0.11 | 86 | 1009.9 |
| 20260509023519 | 69 | 355 | 1.0 | 3.0 | 0.00 | 0.11 | 0.11 | 85 | 1009.5 |
| 20260509023045 | 70 | 58 | 1.0 | 6.0 | 0.00 | 0.11 | 0.11 | 85 | 1009.2 |
| 20260509022523 | 70 | 59 | 1.0 | 8.0 | 0.00 | 0.11 | 0.11 | 85 | 1009.0 |
| 20260509022019 | 70 | 61 | 3.0 | 9.0 | 0.00 | 0.11 | 0.11 | 85 | 1008.5 |
| 20260509021541 | 70 | 74 | 5.0 | 9.0 | 0.00 | 0.11 | 0.11 | 86 | 1008.2 |
| 20260509021018 | 70 | 78 | 4.0 | 10.0 | 0.00 | 0.11 | 0.11 | 86 | 1008.1 |
| 20260509020520 | 70 | 69 | 4.0 | 10.0 | 0.00 | 0.11 | 0.11 | 85 | 1007.8 |
| 20260509020045 | 70 | 68 | 3.0 | 9.0 | 0.00 | 0.11 | 0.11 | 85 | 1007.9 |
| 20260509015519 | 70 | 81 | 2.0 | 8.0 | 0.00 | 0.11 | 0.11 | 85 | 1008.0 |
| 20260509015019 | 70 | 93 | 2.0 | 9.0 | 0.00 | 0.11 | 0.11 | 84 | 1007.9 |
| 20260509014538 | 70 | 84 | 3.0 | 9.0 | 0.00 | 0.11 | 0.11 | 84 | 1007.8 |
| 20260509014018 | 70 | 77 | 3.0 | 8.0 | 0.00 | 0.11 | 0.11 | 84 | 1007.8 |
| 20260509013518 | 70 | 80 | 1.0 | 8.0 | 0.00 | 0.11 | 0.11 | 83 | 1007.7 |
| 20260509013052 | 71 | 0 | 0.0 | 1.0 | 0.00 | 0.11 | 0.11 | 82 | 1007.8 |
| 20260509012518 | 71 | 0 | 0.0 | 0.0 | 0.00 | 0.11 | 0.11 | 82 | 1007.9 |
| 20260509012026 | 71 | 0 | 0.0 | 0.0 | 0.00 | 0.11 | 0.11 | 81 | 1007.9 |
| 20260509011539 | 72 | 0 | 0.0 | 0.0 | 0.00 | 0.11 | 0.11 | 81 | 1008.1 |
| 20260509011020 | 72 | 0 | 0.0 | 0.0 | 0.00 | 0.11 | 0.11 | 81 | 1008.2 |
| 20260509010519 | 72 | 0 | 0.0 | 0.0 | 0.00 | 0.11 | 0.11 | 80 | 1008.2 |
| 20260509010035 | 72 | 0 | 0.0 | 0.0 | 0.00 | 0.11 | 0.11 | 80 | 1008.3 |
| 20260509005521 | 72 | 0 | 0.0 | 0.0 | 0.00 | 0.11 | 0.11 | 80 | 1008.5 |
| 20260509005019 | 72 | 0 | 0.0 | 4.0 | 0.00 | 0.11 | 0.11 | 80 | 1008.4 |
| 20260509004541 | 73 | 0 | 0.0 | 6.0 | 0.00 | 0.11 | 0.11 | 79 | 1008.4 |
| 20260509004019 | 73 | 143 | 2.0 | 7.0 | 0.00 | 0.11 | 0.11 | 79 | 1008.3 |
| 20260509003519 | 73 | 111 | 1.0 | 7.0 | 0.00 | 0.11 | 0.11 | 78 | 1008.2 |
| 20260509003054 | 73 | 148 | 2.0 | 6.0 | 0.00 | 0.11 | 0.11 | 78 | 1008.1 |
| 20260509002518 | 73 | 146 | 1.0 | 5.0 | 0.00 | 0.11 | 0.11 | 78 | 1008.0 |
| 20260509002018 | 74 | 146 | 2.0 | 6.0 | 0.00 | 0.11 | 0.11 | 77 | 1008.1 |
| 20260509001534 | 74 | 0 | 1.0 | 8.0 | 0.00 | 0.11 | 0.11 | 77 | 1008.0 |
| 20260509001019 | 74 | 134 | 2.0 | 9.0 | 0.00 | 0.11 | 0.11 | 77 | 1007.9 |
| 20260509000524 | 74 | 121 | 2.0 | 9.0 | 0.00 | 0.11 | 0.11 | 77 | 1007.8 |
| 20260509000044 | 74 | 154 | 3.0 | 9.0 | 0.00 | 0.11 | 0.11 | 76 | 1007.8 |
| 20260508235519 | 74 | 102 | 2.0 | 7.0 | 0.00 | 0.11 | 0.11 | 76 | 1007.8 |
| 20260508235018 | 74 | 140 | 2.0 | 7.0 | 0.00 | 0.11 | 0.11 | 76 | 1007.9 |
| 20260508234535 | 75 | 105 | 1.0 | 8.0 | 0.00 | 0.11 | 0.11 | 76 | 1007.9 |
| 20260508234020 | 75 | 142 | 2.0 | 11.0 | 0.00 | 0.11 | 0.11 | 75 | 1008.0 |
| 20260508233519 | 75 | 151 | 3.0 | 11.0 | 0.00 | 0.11 | 0.11 | 75 | 1008.1 |
| 20260508233036 | 75 | 84 | 2.0 | 11.0 | 0.00 | 0.11 | 0.11 | 75 | 1008.1 |
| 20260508232519 | 75 | 86 | 2.0 | 10.0 | 0.00 | 0.11 | 0.11 | 74 | 1008.1 |
| 20260508232019 | 75 | 150 | 2.0 | 10.0 | 0.00 | 0.11 | 0.11 | 74 | 1008.2 |
| 20260508231539 | 75 | 139 | 3.0 | 10.0 | 0.00 | 0.11 | 0.11 | 73 | 1008.2 |
| 20260508231017 | 75 | 104 | 3.0 | 10.0 | 0.00 | 0.11 | 0.11 | 72 | 1008.1 |
| 20260508230518 | 75 | 133 | 3.0 | 8.0 | 0.00 | 0.11 | 0.11 | 72 | 1008.0 |
| 20260508230040 | 76 | 162 | 4.0 | 12.0 | 0.00 | 0.11 | 0.11 | 71 | 1008.1 |
| 20260508225524 | 76 | 80 | 3.0 | 12.0 | 0.00 | 0.11 | 0.11 | 72 | 1008.1 |
| 20260508225018 | 76 | 88 | 1.0 | 10.0 | 0.00 | 0.11 | 0.11 | 72 | 1008.1 |
| 20260508224543 | 76 | 72 | 1.0 | 10.0 | 0.00 | 0.11 | 0.11 | 72 | 1008.1 |
| 20260508224017 | 76 | 74 | 3.0 | 10.0 | 0.00 | 0.11 | 0.11 | 72 | 1008.1 |
| 20260508223524 | 76 | 101 | 2.0 | 13.0 | 0.00 | 0.11 | 0.11 | 72 | 1008.2 |
| 20260508223042 | 76 | 88 | 6.0 | 13.0 | 0.00 | 0.11 | 0.11 | 73 | 1008.3 |
| 20260508222519 | 76 | 81 | 6.0 | 12.0 | 0.00 | 0.11 | 0.11 | 72 | 1008.3 |
| 20260508222020 | 76 | 75 | 4.0 | 10.0 | 0.00 | 0.11 | 0.11 | 71 | 1008.3 |
| 20260508221536 | 76 | 123 | 2.0 | 10.0 | 0.00 | 0.11 | 0.11 | 71 | 1008.2 |
| 20260508221017 | 76 | 138 | 2.0 | 10.0 | 0.00 | 0.11 | 0.11 | 71 | 1008.4 |
| 20260508220521 | 76 | 151 | 4.0 | 10.0 | 0.00 | 0.11 | 0.11 | 70 | 1008.3 |
| 20260508220035 | 76 | 136 | 3.0 | 7.0 | 0.00 | 0.11 | 0.11 | 71 | 1008.4 |
| 20260508215516 | 76 | 117 | 1.0 | 8.0 | 0.00 | 0.11 | 0.11 | 71 | 1008.4 |
| 20260508215020 | 77 | 123 | 3.0 | 8.0 | 0.00 | 0.11 | 0.11 | 70 | 1008.4 |
| 20260508214541 | 77 | 101 | 2.0 | 8.0 | 0.00 | 0.11 | 0.11 | 72 | 1008.4 |
| 20260508214017 | 77 | 142 | 2.0 | 9.0 | 0.00 | 0.11 | 0.11 | 72 | 1008.5 |
| 20260508213518 | 76 | 167 | 3.0 | 10.0 | 0.00 | 0.11 | 0.11 | 72 | 1008.5 |
| 20260508213041 | 76 | 92 | 3.0 | 10.0 | 0.00 | 0.11 | 0.11 | 72 | 1008.6 |
| 20260508212520 | 76 | 132 | 4.0 | 11.0 | 0.00 | 0.11 | 0.11 | 72 | 1008.6 |
| 20260508212018 | 76 | 87 | 5.0 | 11.0 | 0.00 | 0.11 | 0.11 | 71 | 1008.6 |